New Haven, CT

1:57 PM EDT on August 22, 2017 (GMT -0400)
Tweed-New Haven

Weather History for KHVN - October, 2013

Change the Weather History Date:

Saturday, October 5, 2013

  Actual Average Record
Temperature  
Mean Temperature 67 °F -  
Max Temperature 72 °F 64 °F 81 °F (2002)
Min Temperature 62 °F 47 °F 35 °F (1996)
Cooling Degree Days 2    
Growing Degree Days 17 (Base 50)    
Moisture  
Dew Point 61 °F    
Average Humidity 84    
Maximum Humidity 94    
Minimum Humidity 71    
Precipitation  
Precipitation 0.00 in - - ()
Sea Level Pressure  
Sea Level Pressure 30.08 in    
Wind  
Wind Speed 4 mph (NE)    
Max Wind Speed 8 mph    
Max Gust Speed -    
Visibility 10 miles    
Events      
Averages and records for this station are not official NWS values.
T = Trace of Precipitation, MM = Missing Value Source: NWS Daily Summary

Daily Weather History Graph

Daily Weather History Graph

Search for Another Location

Airport or City:

Trip Planner

Search our weather history database for the weather conditions in past years. The results will help you decide how hot, cold, wet, or windy it might be!

Date:

Astronomy

Oct. 05, 2013 Rise Set
Actual Time 6:52 AM EDT 6:26 PM EDT
Civil Twilight 6:25 AM EDT 6:53 PM EDT
Nautical Twilight 5:53 AM EDT 7:25 PM EDT
Astronomical Twilight 5:20 AM EDT 7:57 PM EDT
Moon 7:29 AM EDT (10/5) 6:42 PM EDT (10/5)
Length of Visible Light 12h 28m
Length of Day
11h 33m
New Moon, 0% of the Moon is Illuminated
Oct 5
New Moon
Oct 11
First Quarter
Oct 18
Full
Oct 26
Last Quarter
Nov 3
New

Hourly Weather History & Observations

Time (EDT) Temp. Dew Point Humidity Pressure Visibility Wind Dir Wind Speed Gust Speed Precip Events Conditions
12:53 AM 63.0 °F 59.0 °F 87% 30.05 in 10.0 mi North 4.6 mph - N/A   Overcast
1:53 AM 63.0 °F 59.0 °F 87% 30.06 in 10.0 mi NNE 5.8 mph - N/A   Overcast
2:53 AM 63.0 °F 59.0 °F 87% 30.04 in 10.0 mi NNE 6.9 mph - N/A   Overcast
3:53 AM 62.1 °F 57.9 °F 86% 30.05 in 10.0 mi North 4.6 mph - N/A   Overcast
4:53 AM 62.1 °F 57.9 °F 86% 30.06 in 10.0 mi North 4.6 mph - N/A   Overcast
5:07 AM 62.6 °F 57.2 °F 82% 30.06 in 10.0 mi NNE 4.6 mph - N/A   Overcast
5:53 AM 62.1 °F 59.0 °F 90% 30.07 in 10.0 mi NNE 3.5 mph - N/A   Overcast
6:53 AM 62.1 °F 57.9 °F 86% 30.08 in 10.0 mi NNW 4.6 mph - N/A   Overcast
7:53 AM 63.0 °F 59.0 °F 87% 30.08 in 10.0 mi NNE 6.9 mph - N/A   Overcast
8:53 AM 64.0 °F 59.0 °F 84% 30.09 in 10.0 mi NNE 3.5 mph - N/A   Overcast
9:53 AM 64.9 °F 59.0 °F 81% 30.10 in 10.0 mi Calm Calm - N/A   Overcast
10:32 AM 66.2 °F 59.0 °F 78% 30.10 in 10.0 mi North 3.5 mph - N/A   Overcast
10:53 AM 66.0 °F 60.1 °F 81% 30.11 in 9.0 mi North 3.5 mph - N/A   Overcast
11:53 AM 66.9 °F 60.1 °F 79% 30.10 in 10.0 mi NNE 6.9 mph - N/A   Overcast
12:53 PM 69.1 °F 61.0 °F 75% 30.08 in 10.0 mi Variable 3.5 mph - N/A   Mostly Cloudy
1:05 PM 69.8 °F 60.8 °F 73% 30.07 in 10.0 mi Calm Calm - N/A   Scattered Clouds
1:53 PM 72.0 °F 62.1 °F 71% 30.05 in 8.0 mi South 6.9 mph - N/A   Scattered Clouds
2:53 PM 71.1 °F 62.1 °F 73% 30.04 in 8.0 mi South 8.1 mph - N/A   Scattered Clouds
3:53 PM 71.1 °F 63.0 °F 75% 30.06 in 8.0 mi South 5.8 mph - N/A   Scattered Clouds
4:53 PM 69.1 °F 62.1 °F 78% 30.06 in 10.0 mi SSW 4.6 mph - N/A   Clear
5:53 PM 68.0 °F 62.1 °F 81% 30.06 in 10.0 mi Calm Calm - N/A   Clear
6:53 PM 66.0 °F 62.1 °F 87% 30.06 in 10.0 mi Calm Calm - N/A   Clear
7:53 PM 64.0 °F 61.0 °F 90% 30.07 in 9.0 mi Calm Calm - N/A   Clear
8:32 PM 64.4 °F 60.8 °F 88% 30.08 in 7.0 mi Calm Calm - N/A   Mostly Cloudy
8:53 PM 66.0 °F 63.0 °F 90% 30.08 in 7.0 mi ESE 4.6 mph - N/A   Overcast
9:07 PM 66.2 °F 64.4 °F 94% 30.09 in 10.0 mi South 8.1 mph - N/A   Overcast
9:53 PM 66.0 °F 63.0 °F 90% 30.10 in 10.0 mi SSE 6.9 mph - N/A   Overcast
10:53 PM 64.9 °F 62.1 °F 90% 30.11 in 10.0 mi SSE 6.9 mph - N/A   Overcast
11:20 PM 64.4 °F 62.6 °F 94% 30.10 in 10.0 mi Calm Calm - N/A   Mostly Cloudy
11:53 PM 64.9 °F 62.1 °F 90% 30.10 in 10.0 mi SE 4.6 mph - N/A   Overcast